Location: Shenandoah County Park
(38.9356°N, 78.4524°W)
Time: 12:44:15
(UTC-05:00)

Transit 2A - Pass Details

Date: 16 October 2025
Orbit: 591 x 954 km, 66.7° (Epoch: 07 November)

Event Time Altitude Azimuth Distance (km) Brightness Sun altitude
Rises 19:58:29 0° 217° (SW) 2,930 9.5 -17.3°
Reaches altitude 10° 20:00:42 10° 222° (SW) 2,067 8.8 -17.7°
Maximum altitude 20:05:18 59° 302° (WNW) 810 6.4 -18.6°
Drops below altitude 10° 20:10:28 10° 22° (NNE) 2,302 8.3 -19.6°
Enters shadow 20:12:23 - 25° (NNE) 3,037 8.9 -20.0°
